FW6664 Weather Reports


Display with metric or nautical units.
time (UTC)temp
F
wind
direction
speed
MPH
gust
MPH
rain 1hr
in
rain 24hr
in
rain mn
in
humidity
%
barometer
mb
20260505041512 57 212 3.0 4.0 0.00 0.00 0.00 33 1017.0
20260505041330 58 226 2.0 0.0 0.00 0.00 0.00 33 1017.0
20260505041007 57 231 3.0 5.0 0.00 0.00 0.00 33 1017.0
20260505040827 58 249 3.0 0.0 0.00 0.00 0.00 33 1017.0
20260505040559 57 249 2.0 5.0 0.00 0.00 0.00 33 1017.0
20260505040501 57 226 3.0 5.0 0.00 0.00 0.00 33 1017.0
20260505040343 58 226 3.0 0.0 0.00 0.00 0.00 33 1017.0
20260505040052 57 219 2.0 6.0 0.00 0.00 0.00 33 1017.0
20260505035839 58 219 1.0 0.0 0.00 0.00 0.00 33 1017.0
20260505035549 57 219 3.0 6.0 0.00 0.00 0.00 33 1017.0
20260505035338 58 219 3.0 0.0 0.00 0.00 0.00 33 1017.0
20260505035018 57 242 4.0 5.0 0.00 0.00 0.00 33 1017.0
20260505034831 58 244 1.0 0.0 0.00 0.00 0.00 33 1017.0
20260505034547 57 244 2.0 4.0 0.00 0.00 0.00 33 1017.0
20260505034347 58 235 4.0 0.0 0.00 0.00 0.00 33 1017.0
20260505034021 57 235 1.0 6.0 0.00 0.00 0.00 33 1017.0
20260505033843 58 235 4.0 0.0 0.00 0.00 0.00 33 1017.0
20260505033514 57 234 1.0 6.0 0.00 0.00 0.00 33 1017.0
20260505033336 58 234 3.0 0.0 0.00 0.00 0.00 33 1017.0
20260505033102 57 235 2.0 3.0 0.00 0.00 0.00 33 1017.0
20260505032832 58 235 3.0 0.0 0.00 0.00 0.00 33 1017.0
20260505032515 57 235 1.0 3.0 0.00 0.00 0.00 33 1017.0
20260505032328 58 235 2.0 0.0 0.00 0.00 0.00 33 1017.0
20260505032011 58 235 0.0 3.0 0.00 0.00 0.00 33 1017.0
20260505031826 58 235 3.0 0.0 0.00 0.00 0.00 33 1017.0
20260505031504 58 235 0.0 3.0 0.00 0.00 0.00 33 1017.0
20260505031341 58 235 3.0 0.0 0.00 0.00 0.00 33 1017.0
20260505031058 58 235 2.0 3.0 0.00 0.00 0.00 33 1017.0
20260505030837 58 235 3.0 0.0 0.00 0.00 0.00 33 1017.0
20260505030553 58 235 2.0 4.0 0.00 0.00 0.00 33 1017.0
20260505030334 58 235 4.0 0.0 0.00 0.00 0.00 33 1017.0
20260505030044 58 235 2.0 5.0 0.00 0.00 0.00 33 1017.0
20260505025831 59 216 7.0 0.0 0.00 0.00 0.00 33 1017.0
20260505025535 58 235 2.0 6.0 0.00 0.00 0.00 33 1017.0
20260505025405 59 210 4.0 0.0 0.00 0.00 0.00 33 1017.0
20260505025009 58 215 3.0 6.0 0.00 0.00 0.00 33 1017.0
20260505024839 59 216 5.0 0.0 0.00 0.00 0.00 33 1017.0
20260505024604 58 224 3.0 5.0 0.00 0.00 0.00 33 1017.0
20260505024500 58 253 3.0 5.0 0.00 0.00 0.00 33 1017.0
20260505024339 59 279 3.0 0.0 0.00 0.00 0.00 33 1017.0
20260505024051 59 242 3.0 5.0 0.00 0.00 0.00 33 1017.0
20260505023855 59 222 2.0 0.0 0.00 0.00 0.00 33 1017.0
20260505023526 59 275 1.0 6.0 0.00 0.00 0.00 33 1017.0
20260505023329 59 281 1.0 0.0 0.00 0.00 0.00 33 1017.0
20260505023016 59 218 3.0 6.0 0.00 0.00 0.00 33 1017.0
20260505022824 59 275 5.0 0.0 0.00 0.00 0.00 33 1017.0
20260505022515 59 258 5.0 7.0 0.00 0.00 0.00 33 1017.0
20260505022401 60 281 8.0 0.0 0.00 0.00 0.00 33 1017.0
20260505022042 59 288 3.0 7.0 0.00 0.00 0.00 33 1017.0
20260505021838 60 288 4.0 0.0 0.00 0.00 0.00 33 1017.0
20260505021534 60 293 6.0 7.0 0.00 0.00 0.00 33 1017.0
20260505021334 60 284 2.0 0.0 0.00 0.00 0.00 33 1017.0
20260505021005 60 283 6.0 8.0 0.00 0.00 0.00 33 1017.0
20260505020828 60 274 3.0 0.0 0.00 0.00 0.00 33 1017.0
20260505020555 60 214 5.0 8.0 0.00 0.00 0.00 33 1017.0
20260505020407 61 280 2.0 0.0 0.00 0.00 0.00 33 1017.0
20260505020029 60 239 4.0 7.0 0.00 0.00 0.00 33 1017.0
20260505015841 60 222 6.0 0.0 0.00 0.00 0.00 33 1017.0
20260505015524 60 212 4.0 9.0 0.00 0.00 0.00 33 1017.0
20260505015337 60 213 6.0 0.0 0.00 0.00 0.00 33 1017.0
20260505015016 60 215 4.0 9.0 0.00 0.00 0.00 33 1017.0
20260505014833 60 227 7.0 0.0 0.00 0.00 0.00 33 1017.0
20260505014511 60 284 3.0 10.0 0.00 0.00 0.00 33 1017.0
20260505014328 61 211 3.0 0.0 0.00 0.00 0.00 33 1017.0
20260505014059 60 226 7.0 10.0 0.00 0.00 0.00 33 1017.0
20260505014003 60 205 8.0 10.0 0.00 0.00 0.00 33 1017.0
20260505013843 61 220 9.0 0.0 0.00 0.00 0.00 33 1017.0
20260505013553 61 232 4.0 6.0 0.00 0.00 0.00 33 1017.0
20260505013340 61 224 7.0 0.0 0.00 0.00 0.00 33 1017.0
20260505013026 61 255 5.0 6.0 0.00 0.00 0.00 33 1017.0
20260505012835 62 258 5.0 0.0 0.00 0.00 0.00 33 1017.0
20260505012554 62 215 4.0 6.0 0.00 0.00 0.00 33 1017.0
20260505012350 63 227 7.0 0.0 0.00 0.00 0.00 33 1017.0
20260505012027 63 226 5.0 6.0 0.00 0.00 0.00 33 1017.0
20260505011845 63 228 8.0 0.0 0.00 0.00 0.00 33 1017.0
20260505011520 63 292 5.0 8.0 0.00 0.00 0.00 33 1017.0
20260505011339 64 229 6.0 0.0 0.00 0.00 0.00 33 1017.0
20260505011010 63 277 5.0 8.0 0.00 0.00 0.00 33 1017.0
20260505010833 64 215 6.0 0.0 0.00 0.00 0.00 33 1017.0
20260505010537 65 214 6.0 8.0 0.00 0.00 0.00 33 1017.0
20260505010327 65 291 5.0 0.0 0.00 0.00 0.00 33 1017.0
20260505010012 64 256 3.0 6.0 0.00 0.00 0.00 33 1017.0
20260505005843 65 248 3.0 0.0 0.00 0.00 0.00 33 1017.0
20260505005507 64 321 2.0 9.0 0.00 0.00 0.00 33 1017.0
20260505005339 64 290 7.0 0.0 0.00 0.00 0.00 33 1017.0
20260505005055 64 251 5.0 9.0 0.00 0.00 0.00 33 1017.0
20260505004834 64 254 7.0 0.0 0.00 0.00 0.00 33 1017.0
20260505004538 64 247 5.0 8.0 0.00 0.00 0.00 33 1017.0
20260505004350 64 180 5.0 0.0 0.00 0.00 0.00 33 1017.0
20260505004055 63 274 3.0 8.0 0.00 0.00 0.00 33 1017.0
20260505003842 64 215 11.0 0.0 0.00 0.00 0.00 33 1017.0
20260505003547 63 215 5.0 10.0 0.00 0.00 0.00 33 1017.0
20260505003339 64 210 8.0 0.0 0.00 0.00 0.00 33 1017.0
20260505003043 63 227 4.0 10.0 0.00 0.00 0.00 33 1017.0
20260505002837 64 163 5.0 0.0 0.00 0.00 0.00 33 1017.0
20260505002514 64 217 8.0 12.0 0.00 0.00 0.00 33 1017.0
20260505002330 64 224 9.0 0.0 0.00 0.00 0.00 33 1017.0
20260505002006 63 221 6.0 12.0 0.00 0.00 0.00 33 1017.0
20260505001844 64 214 6.0 0.0 0.00 0.00 0.00 33 1017.0
20260505001556 63 287 5.0 8.0 0.00 0.00 0.00 33 1017.0
20260505001340 64 246 6.0 0.0 0.00 0.00 0.00 33 1017.0
20260505001050 64 222 4.0 9.0 0.00 0.00 0.00 33 1017.0
20260505000837 64 221 6.0 0.0 0.00 0.00 0.00 33 1017.0
20260505000549 64 224 6.0 9.0 0.00 0.00 0.00 33 1017.0
20260505000354 64 231 13.0 0.0 0.00 0.00 0.00 33 1017.0
20260505000020 64 230 8.0 10.0 0.00 0.00 0.00 33 1017.0
20260504235831 64 293 6.0 0.0 0.00 0.00 0.00 33 1017.0
20260504235510 63 262 2.0 11.0 0.00 0.00 0.00 33 1017.0
20260504235346 63 285 6.0 0.0 0.00 0.00 0.00 33 1017.0
20260504235039 63 211 7.0 11.0 0.00 0.00 0.00 33 1017.0
20260504234845 63 235 7.0 0.0 0.00 0.00 0.00 33 1017.0
20260504234543 63 231 4.0 9.0 0.00 0.00 0.00 33 1017.0
20260504234339 64 229 9.0 0.0 0.00 0.00 0.00 33 1017.0
20260504234023 64 235 6.0 9.0 0.00 0.00 0.00 33 1017.0
20260504233855 64 265 4.0 0.0 0.00 0.00 0.00 33 1017.0
20260504233554 64 215 5.0 7.0 0.00 0.00 0.00 33 1017.0
20260504233330 64 279 6.0 0.0 0.00 0.00 0.00 33 1017.0
20260504233050 64 237 6.0 7.0 0.00 0.00 0.00 33 1017.0
20260504232825 65 226 11.0 0.0 0.00 0.00 0.00 33 1017.0
20260504232541 65 237 5.0 6.0 0.00 0.00 0.00 33 1017.0
20260504232341 65 299 6.0 0.0 0.00 0.00 0.00 33 1017.0
20260504232032 65 287 3.0 8.0 0.00 0.00 0.00 33 1017.0
20260504231856 65 229 7.0 0.0 0.00 0.00 0.00 33 1017.0
20260504231606 65 268 2.0 8.0 0.00 0.00 0.00 33 1017.0
20260504231511 65 221 2.0 8.0 0.00 0.00 0.00 33 1017.0
20260504231327 66 235 3.0 0.0 0.00 0.00 0.00 33 1017.0
20260504231050 65 283 8.0 8.0 0.00 0.00 0.00 33 1017.0
20260504230841 66 275 6.0 0.0 0.00 0.00 0.00 33 1017.0
20260504230547 66 290 4.0 10.0 0.00 0.00 0.00 33 1017.0
20260504230401 67 297 4.0 0.0 0.00 0.00 0.00 33 1017.0
20260504230020 66 266 5.0 10.0 0.00 0.00 0.00 33 1017.0
20260504225837 67 268 3.0 0.0 0.00 0.00 0.00 33 1017.0
20260504225523 66 275 4.0 10.0 0.00 0.00 0.00 33 1017.0
20260504225334 66 272 14.0 0.0 0.00 0.00 0.00 33 1017.0
20260504225010 66 267 4.0 12.0 0.00 0.00 0.00 33 1017.0
20260504224829 66 253 2.0 0.0 0.00 0.00 0.00 33 1017.0
20260504224506 66 287 11.0 12.0 0.00 0.00 0.00 33 1017.0
20260504224327 66 286 7.0 0.0 0.00 0.00 0.00 33 1017.0
20260504224034 66 234 4.0 10.0 0.00 0.00 0.00 33 1017.0
20260504223844 66 285 4.0 0.0 0.00 0.00 0.00 33 1017.0
20260504223532 66 306 7.0 9.0 0.00 0.00 0.00 33 1017.0
20260504223340 66 293 8.0 0.0 0.00 0.00 0.00 33 1017.0
20260504223025 65 293 6.0 11.0 0.00 0.00 0.00 33 1017.0
20260504222858 66 296 7.0 0.0 0.00 0.00 0.00 33 1017.0
20260504222553 66 317 8.0 11.0 0.00 0.00 0.00 33 1017.0
20260504222332 66 279 12.0 0.0 0.00 0.00 0.00 33 1017.0
20260504222048 66 288 4.0 13.0 0.00 0.00 0.00 33 1017.0
20260504221826 67 294 11.0 0.0 0.00 0.00 0.00 33 1017.0
20260504221539 66 306 9.0 13.0 0.00 0.00 0.00 33 1017.0
20260504221404 66 286 9.0 0.0 0.00 0.00 0.00 33 1017.0
20260504221013 66 227 6.0 10.0 0.00 0.00 0.00 33 1017.0
20260504220840 67 293 8.0 0.0 0.00 0.00 0.00 33 1017.0
20260504220511 66 281 8.0 10.0 0.00 0.00 0.00 33 1017.0
20260504220338 66 286 9.0 0.0 0.00 0.00 0.00 33 1017.0
20260504220005 65 263 6.0 8.0 0.00 0.00 0.00 33 1017.0
20260504215856 66 247 2.0 0.0 0.00 0.00 0.00 33 1017.0
20260504215534 66 263 6.0 8.0 0.00 0.00 0.00 33 1017.0
20260504215329 66 287 11.0 0.0 0.00 0.00 0.00 33 1017.0
20260504215027 66 289 3.0 8.0 0.00 0.00 0.00 33 1017.0
20260504214846 67 281 7.0 0.0 0.00 0.00 0.00 33 1017.0
20260504214602 66 296 7.0 11.0 0.00 0.00 0.00 33 1017.0
20260504214340 67 289 5.0 0.0 0.00 0.00 0.00 33 1017.0
20260504214049 66 273 4.0 13.0 0.00 0.00 0.00 33 1017.0
20260504213839 67 283 7.0 0.0 0.00 0.00 0.00 33 1017.0
20260504213545 66 282 10.0 13.0 0.00 0.00 0.00 33 1017.0
20260504213338 66 289 14.0 0.0 0.00 0.00 0.00 33 1017.0
20260504213017 66 251 5.0 12.0 0.00 0.00 0.00 33 1017.0
20260504212834 66 289 8.0 0.0 0.00 0.00 0.00 33 1017.0
20260504212514 66 264 6.0 12.0 0.00 0.00 0.00 33 1017.0
20260504212333 67 299 6.0 0.0 0.00 0.00 0.00 33 1017.0
20260504212008 66 279 7.0 10.0 0.00 0.00 0.00 33 1017.0
20260504211827 67 275 14.0 0.0 0.00 0.00 0.00 33 1017.0
20260504211555 66 209 6.0 9.0 0.00 0.00 0.00 33 1017.0
20260504211342 67 288 7.0 0.0 0.00 0.00 0.00 33 1017.0
20260504211047 66 272 4.0 9.0 0.00 0.00 0.00 33 1017.0
20260504210838 66 251 5.0 0.0 0.00 0.00 0.00 33 1017.0
20260504210540 66 261 4.0 9.0 0.00 0.00 0.00 33 1017.0
20260504210331 66 296 5.0 0.0 0.00 0.00 0.00 33 1017.0
20260504210032 66 291 5.0 13.0 0.00 0.00 0.00 33 1017.0
20260504205826 66 284 5.0 0.0 0.00 0.00 0.00 33 1017.0
20260504205531 66 285 8.0 13.0 0.00 0.00 0.00 33 1017.0
20260504205346 66 284 10.0 0.0 0.00 0.00 0.00 33 1017.0
20260504205020 66 289 10.0 13.0 0.00 0.00 0.00 33 1017.0
20260504204840 66 293 4.0 0.0 0.00 0.00 0.00 33 1017.0
20260504204532 66 301 3.0 10.0 0.00 0.00 0.00 33 1017.0
20260504204337 66 279 9.0 0.0 0.00 0.00 0.00 33 1017.0
20260504204010 66 301 6.0 9.0 0.00 0.00 0.00 33 1017.0
20260504203834 66 277 7.0 0.0 0.00 0.00 0.00 33 1017.0
20260504203600 66 273 4.0 7.0 0.00 0.00 0.00 33 1017.0
20260504203504 66 276 3.0 7.0 0.00 0.00 0.00 33 1017.0
20260504203328 67 265 9.0 0.0 0.00 0.00 0.00 33 1017.0
20260504203053 66 255 4.0 7.0 0.00 0.00 0.00 33 1017.0
20260504202842 67 293 5.0 0.0 0.00 0.00 0.00 33 1017.0
20260504202525 67 298 6.0 8.0 0.00 0.00 0.00 33 1017.0
20260504202339 67 262 8.0 0.0 0.00 0.00 0.00 33 1017.0
20260504202019 66 292 6.0 8.0 0.00 0.00 0.00 33 1017.0
20260504201834 67 269 5.0 0.0 0.00 0.00 0.00 33 1017.0
20260504201512 66 199 4.0 13.0 0.00 0.00 0.00 33 1017.0
20260504201350 67 281 9.0 0.0 0.00 0.00 0.00 33 1017.0
20260504201042 66 227 4.0 13.0 0.00 0.00 0.00 33 1017.0
20260504200826 67 225 16.0 0.0 0.00 0.00 0.00 33 1017.0
20260504200516 65 262 4.0 10.0 0.00 0.00 0.00 33 1017.0
20260504200339 66 281 8.0 0.0 0.00 0.00 0.00 33 1017.0
20260504200009 65 276 6.0 10.0 0.00 0.00 0.00 33 1017.0
20260504195834 65 257 2.0 0.0 0.00 0.00 0.00 33 1017.0
20260504195551 64 286 5.0 10.0 0.00 0.00 0.00 33 1017.0
20260504195332 65 300 5.0 0.0 0.00 0.00 0.00 33 1017.0
20260504195049 65 218 5.0 9.0 0.00 0.00 0.00 33 1017.0
20260504194828 66 287 8.0 0.0 0.00 0.00 0.00 33 1017.0
20260504194547 65 272 4.0 9.0 0.00 0.00 0.00 33 1017.0
20260504194342 65 296 2.0 0.0 0.00 0.00 0.00 33 1017.0
20260504194034 65 291 6.0 7.0 0.00 0.00 0.00 33 1017.0
20260504193901 65 254 8.0 0.0 0.00 0.00 0.00 33 1017.0
20260504193508 65 280 5.0 7.0 0.00 0.00 0.00 33 1017.0
20260504193359 65 270 7.0 0.0 0.00 0.00 0.00 33 1017.0
20260504193039 65 311 5.0 9.0 0.00 0.00 0.00 33 1017.0
20260504192834 65 288 4.0 0.0 0.00 0.00 0.00 33 1017.0
20260504192514 65 259 5.0 11.0 0.00 0.00 0.00 33 1017.0
20260504192352 65 293 6.0 0.0 0.00 0.00 0.00 33 1017.0
20260504192041 64 266 8.0 11.0 0.00 0.00 0.00 33 1017.0
20260504191847 65 267 10.0 0.0 0.00 0.00 0.00 33 1017.0
20260504191532 64 288 8.0 11.0 0.00 0.00 0.00 33 1017.0
20260504191341 65 283 10.0 0.0 0.00 0.00 0.00 33 1017.0
20260504191027 64 281 5.0 7.0 0.00 0.00 0.00 33 1017.0
20260504190837 64 247 4.0 0.0 0.00 0.00 0.00 33 1017.0
20260504190522 63 290 2.0 7.0 0.00 0.00 0.00 33 1017.0
20260504190334 63 258 4.0 0.0 0.00 0.00 0.00 33 1017.0
20260504190015 62 253 4.0 11.0 0.00 0.00 0.00 33 1017.0
20260504185829 62 217 7.0 0.0 0.00 0.00 0.00 33 1017.0
20260504185508 62 211 6.0 11.0 0.00 0.00 0.00 33 1017.0
20260504185343 62 252 8.0 0.0 0.00 0.00 0.00 33 1017.0
20260504185037 62 217 9.0 11.0 0.00 0.00 0.00 33 1017.0
20260504184840 62 261 6.0 0.0 0.00 0.00 0.00 33 1017.0
20260504184511 62 214 6.0 7.0 0.00 0.00 0.00 33 1017.0
20260504184335 62 228 6.0 0.0 0.00 0.00 0.00 33 1017.0
20260504184058 62 206 3.0 11.0 0.00 0.00 0.00 33 1017.0
20260504184004 62 202 4.0 11.0 0.00 0.00 0.00 33 1017.0
20260504183829 63 271 6.0 0.0 0.00 0.00 0.00 33 1017.0
20260504183553 62 231 8.0 11.0 0.00 0.00 0.00 33 1017.0
20260504183327 63 274 3.0 0.0 0.00 0.00 0.00 33 1017.0
20260504183056 62 252 4.0 7.0 0.00 0.00 0.00 33 1017.0
20260504182841 63 218 6.0 0.0 0.00 0.00 0.00 33 1017.0
20260504182546 63 198 5.0 7.0 0.00 0.00 0.00 33 1017.0
20260504182339 63 229 7.0 0.0 0.00 0.00 0.00 33 1017.0
20260504182012 62 160 6.0 6.0 0.00 0.00 0.00 33 1017.0
20260504181833 63 237 2.0 0.0 0.00 0.00 0.00 33 1017.0
20260504181510 62 290 4.0 6.0 0.00 0.00 0.00 33 1017.0
20260504181328 63 273 8.0 0.0 0.00 0.00 0.00 33 1017.0
20260504181057 62 231 4.0 8.0 0.00 0.00 0.00 33 1017.0
20260504181002 62 249 3.0 8.0 0.00 0.00 0.00 33 1017.0
20260504180908 62 257 3.0 0.0 0.00 0.00 0.00 33 1017.0
20260504180532 62 205 5.0 8.0 0.00 0.00 0.00 33 1017.0
20260504180342 62 213 10.0 0.0 0.00 0.00 0.00 33 1017.0
20260504180022 62 218 5.0 7.0 0.00 0.00 0.00 33 1017.0
20260504175835 62 281 6.0 0.0 0.00 0.00 0.00 33 1017.0
20260504175513 61 255 6.0 10.0 0.00 0.00 0.00 33 1017.0
20260504175410 62 213 4.0 0.0 0.00 0.00 0.00 33 1017.0
20260504175046 62 261 5.0 10.0 0.00 0.00 0.00 33 1017.0
20260504174844 62 215 6.0 0.0 0.00 0.00 0.00 33 1017.0
20260504174535 62 246 2.0 6.0 0.00 0.00 0.00 33 1017.0
20260504174341 62 213 2.0 0.0 0.00 0.00 0.00 33 1017.0
20260504174025 62 245 3.0 4.0 0.00 0.00 0.00 33 1017.0
20260504173833 62 211 6.0 0.0 0.00 0.00 0.00 33 1017.0
20260504173552 62 257 3.0 4.0 0.00 0.00 0.00 33 1017.0
20260504173347 62 300 5.0 0.0 0.00 0.00 0.00 33 1017.0
20260504173026 61 279 4.0 4.0 0.00 0.00 0.00 33 1017.0
20260504172903 62 200 5.0 0.0 0.00 0.00 0.00 33 1017.0
20260504172555 61 193 2.0 5.0 0.00 0.00 0.00 33 1017.0
20260504172339 61 248 2.0 0.0 0.00 0.00 0.00 33 1017.0
20260504172050 61 246 3.0 5.0 0.00 0.00 0.00 33 1017.0
20260504171835 61 224 5.0 0.0 0.00 0.00 0.00 33 1017.0
20260504171547 61 289 1.0 6.0 0.00 0.00 0.00 33 1017.0
20260504171330 61 287 5.0 0.0 0.00 0.00 0.00 33 1017.0
20260504171014 60 299 3.0 6.0 0.00 0.00 0.00 33 1017.0
20260504170905 61 255 1.0 0.0 0.00 0.00 0.00 33 1017.0
20260504170547 60 266 4.0 6.0 0.00 0.00 0.00 33 1017.0
20260504170403 61 289 5.0 0.0 0.00 0.00 0.00 33 1017.0
20260504160347 60 224 3.0 0.0 0.00 0.00 0.00 33 1017.0
20260504151023 58 298 2.0 6.0 0.00 0.00 0.00 33 1017.0
20260504150837 58 297 3.0 0.0 0.00 0.00 0.00 33 1017.0
20260504150553 58 288 3.0 3.0 0.00 0.00 0.00 33 1017.0
20260504150331 58 313 5.0 0.0 0.00 0.00 0.00 33 1017.0